Regional Weather Roundup
Issued by NWS Little Rock, AR

Home | Current Version | Previous Version | Graphics & Text | Print | Product List | Glossary On
Versions: 1 2 3 4 5 6 7 8 9 10 11 12 13 14 15 16 17 18 19 20 21 22 23 24 25 26 27 28 29 30 31
000
ASUS44 KLZK 220305
RWRLZK

WEATHER ROUNDUP FOR ARKANSAS
NATIONAL WEATHER SERVICE LITTLE ROCK AR
1000 PM CDT WED JUN 21 2017

NOTE: "FAIR" INDICATES FEW OR NO CLOUDS BELOW 12,000 FEET WITH NO
SIGNIFICANT WEATHER AND/OR OBSTRUCTIONS TO VISIBILITY.

ARZ001-003-010-029-220400-
NORTHWEST ARKANSAS

CITY           SKY/WX    TMP DP  RH WIND       PRES   REMARKS
FAYETTEVILLE   CLEAR     69  67  93 E3        29.89F
FORT SMITH     CLOUDY    80  68  66 E8        29.84S
HARRISON       MOCLDY    74  68  81 SE8       29.92S
BENTONVILLE    CLEAR     73  61  64 SE6       29.89F
ROGERS         CLEAR     73  64  73 SE8       29.90F
SILOAM SPGS    PTCLDY    73  63  68 SE7       29.87F
HIGHFILL       PTCLDY    76  63  64 SE9       29.89F
$$

ARZ004-005-016-220400-
NORTH CENTRAL ARKANSAS

CITY           SKY/WX    TMP DP  RH WIND       PRES   REMARKS
BATESVILLE     CLOUDY    75  70  83 SE3       29.92R
FLIPPIN        PTCLDY    75  66  73 CALM      29.88S
MTN HOME       CLOUDY    75  67  76 SE6       29.91S
$$

ARZ040-041-220400-
WEST CENTRAL ARKANSAS

CITY           SKY/WX    TMP DP  RH WIND       PRES   REMARKS
MENA           CLOUDY    79  75  89 E8        29.86F
MOUNT IDA      CLOUDY    77  69  76 VRB5      29.84F
$$

ARZ009-017-025-026-028-220400-
NORTHEAST ARKANSAS

CITY           SKY/WX    TMP DP  RH WIND       PRES   REMARKS
JONESBORO      PTCLDY    79  70  74 SE9       29.92R
WALNUT RIDGE   CLOUDY    79  66  65 SE8       29.92R
BLYTHEVILLE    CLOUDY    80  71  74 SE12      29.94R
$$

ARZ022-023-033-042-044-220400-
CENTRAL ARKANSAS

CITY           SKY/WX    TMP DP  RH WIND       PRES   REMARKS
LITTLE ROCK    CLOUDY    73  73 100 E8        29.88S
N LITTLE ROCK    N/A     73  71  93 E10       29.87S
JACKSONVILLE   DRIZZLE   74  74  99 E12       29.88S
CONWAY           N/A     79  70  73 E8        29.86S
SEARCY         CLOUDY    76  73  91 E6        29.91S
HOT SPRINGS    CLOUDY    76  72  87 E9        29.86S
RUSSELLVILLE   CLOUDY    78  71  79 E5        29.87S
CLINTON        FAIR      73  72  94 CALM      29.91S
$$

ARZ036-220400-
EAST ARKANSAS

CITY           SKY/WX    TMP DP  RH WIND       PRES   REMARKS
WEST MEMPHIS   CLOUDY    78  71  79 SE16      29.92R
$$

ARZ050-053-066-070-073-220400-
SOUTHWEST ARKANSAS

CITY           SKY/WX    TMP DP  RH WIND       PRES   REMARKS
ARKADELPHIA    CLOUDY    75  72  90 VRB5      29.85S
CAMDEN         CLOUDY    75  70  83 E5        29.82S
TEXARKANA      CLOUDY    75  72  90 NE12G17   29.80S
EL DORADO      LGT RAIN  74  73  97 NE12      29.81F
DE QUEEN       LGT RAIN  77  73  87 E12       29.80S
$$

ARZ056-057-069-220400-
SOUTHEAST ARKANSAS

CITY           SKY/WX    TMP DP  RH WIND       PRES   REMARKS
PINE BLUFF     LGT RAIN  74  72  93 E13       29.86S
STUTTGART      CLOUDY    77  63  61 E12       29.89S
MONTICELLO     CLOUDY    75  73  93 E8        29.84S

$$






USA.gov is the U.S. government's official web portal to all federal, state and local government web resources and services.